Simultaneous Nadir Overpasses (SNOs) Predictions

Prediction of SNOs between METOP-B and NOAA-19 Satellite Orbit:

Table of predicted SNOs for the next 14.0 days since TLE Epoch: 6/4/2022
Index Date (METOP-B) Time (METOP-B) Lat,Lon (METOP-B) SZA (METOP-B ) Date (NOAA-19) Time (NOAA-19) Lat,Lon (NOAA-19) SZA (NOAA-19 ) Distance(km) Time Diff (sec)
1 06/14/2022 18:46:10 -80.86, 111.95 120.85 06/14/2022 18:44:57 -80.85, 111.85 120.90 2.33 73
2 06/14/2022 19:36:51 80.84, -80.98 59.11 06/14/2022 19:36:02 80.84, -80.91 59.10 1.34 49
3 06/14/2022 20:27:32 -80.85, 86.47 120.88 06/14/2022 20:26:57 -80.85, 86.31 120.91 2.90 35
4 06/14/2022 21:18:13 80.84,-106.46 59.09 06/14/2022 21:18:02 80.85,-106.44 59.10 1.22 11
5 06/14/2022 22:08:53 -80.84, 60.99 120.90 06/14/2022 22:08:55 -80.84, 61.15 120.89 2.70 2
6 06/14/2022 22:59:33 80.85,-131.59 59.11 06/14/2022 23:00:00 80.84,-131.61 59.12 0.83 27
7 06/14/2022 23:50:15 -80.83, 35.51 120.92 06/14/2022 23:50:55 -80.84, 35.61 120.89 1.85 40



Historial Predications of SNOs between METOP-B and NOAA-19
